Location: Hertford
(51.8000°N, 0.0667°W)
Time: 21:55:58
(UTC+00:00)

Cosmos 2251 Rocket - Pass Details

Date: 18 September 2020
Orbit: 764 x 792 km, 74.0° (Epoch: 20 October)

Event Time Altitude Azimuth Distance (km) Brightness Sun altitude
Rises 21:46:37 0° 334° (NNW) 3,303 7.9 -30.4°
Reaches altitude 10° 21:49:01 10° 333° (NNW) 2,368 6.9 -30.6°
Enters shadow 21:53:18 57° 320° (NW) 932 4.1 -31.0°
